Binghamton, NY

12:02 AM EST on February 23, 2017 (GMT -0500)
Binghamton Regional-Link

Weather History for KBGM - April, 2013

Change the Weather History Date:

Sunday, April 28, 2013

  Actual Average Record
Temperature  
Mean Temperature 55 °F 50 °F  
Max Temperature 68 °F 60 °F 88 °F (1990)
Min Temperature 42 °F 40 °F 26 °F (2012)
Degree Days  
Heating Degree Days 10 15  
Month to date heating degree days 595 573  
Since 1 July heating degree days 6550 6769  
Cooling Degree Days 0 0  
Month to date cooling degree days 0 0  
Year to date cooling degree days 0 0  
Growing Degree Days 5 (Base 50)    
Moisture  
Dew Point 33 °F    
Average Humidity 54    
Maximum Humidity 80    
Minimum Humidity 28    
Precipitation  
Precipitation 0.11 in 0.11 in 1.16 in (1980)
Month to date precipitation 3.34 3.20  
Year to date precipitation 9.79 10.95  
Snow  
Snow 0.00 in 0.10 in 0.20 in (1987)
Month to date snowfall 0.9 4.2  
Since 1 July snowfall 69.1 83.2  
Snow Depth 0.00 in    
Sea Level Pressure  
Sea Level Pressure 30.20 in    
Wind  
Wind Speed 8 mph (SSE)    
Max Wind Speed 18 mph    
Max Gust Speed 28 mph    
Visibility 10 miles    
Events Rain    
T = Trace of Precipitation, MM = Missing Value Source: NWS Daily Summary

Daily Weather History Graph

Daily Weather History Graph

Search for Another Location

Airport or City:

Trip Planner

Search our weather history database for the weather conditions in past years. The results will help you decide how hot, cold, wet, or windy it might be!

Date:

Astronomy

Apr. 28, 2013 Rise Set
Actual Time 6:03 AM EDT 8:00 PM EDT
Civil Twilight 5:33 AM EDT 8:30 PM EDT
Nautical Twilight 4:56 AM EDT 9:07 PM EDT
Astronomical Twilight 4:16 AM EDT 9:48 PM EDT
Moon 11:30 PM EDT (4/28) 8:15 AM EDT (4/28)
Length of Visible Light 14h 57m
Length of Day
13h 56m
Waning Gibbous, 89% of the Moon is Illuminated
Apr 28
Waning Gibbous
May 2
Last Quarter
May 9
New
May 18
First Quarter
May 25
Full

Hourly Weather History & Observations

Time (EDT) Temp. Windchill Dew Point Humidity Pressure Visibility Wind Dir Wind Speed Gust Speed Precip Events Conditions
12:53 AM 50.0 °F - 30.9 °F 48% 30.27 in 10.0 mi ESE 6.9 mph - N/A   Clear
1:53 AM 50.0 °F - 30.0 °F 46% 30.26 in 10.0 mi ESE 4.6 mph - N/A   Clear
2:53 AM 48.0 °F - 30.9 °F 52% 30.24 in 10.0 mi East 4.6 mph - N/A   Clear
3:53 AM 45.0 °F 41.8 °F 30.9 °F 58% 30.24 in 10.0 mi ESE 5.8 mph - N/A   Clear
4:53 AM 46.0 °F 43.9 °F 30.0 °F 54% 30.24 in 10.0 mi SSE 4.6 mph - N/A   Clear
5:53 AM 45.0 °F 42.6 °F 28.9 °F 53% 30.25 in 10.0 mi SSE 4.6 mph - N/A   Clear
6:53 AM 44.1 °F 41.5 °F 30.9 °F 60% 30.25 in 10.0 mi SE 4.6 mph - N/A   Clear
7:53 AM 50.0 °F - 30.9 °F 48% 30.26 in 10.0 mi South 4.6 mph - N/A   Clear
8:53 AM 54.0 °F - 34.0 °F 47% 30.25 in 10.0 mi SE 5.8 mph - N/A   Clear
9:53 AM 59.0 °F - 35.1 °F 41% 30.25 in 10.0 mi SW 6.9 mph - N/A   Clear
10:53 AM 63.0 °F - 36.0 °F 37% 30.24 in 10.0 mi Variable 4.6 mph - N/A   Clear
11:53 AM 66.0 °F - 36.0 °F 33% 30.22 in 10.0 mi SE 10.4 mph - N/A   Clear
12:53 PM 66.0 °F - 32.0 °F 28% 30.19 in 10.0 mi SSE 11.5 mph 19.6 mph N/A   Clear
1:53 PM 66.0 °F - 33.1 °F 29% 30.17 in 10.0 mi SSW 9.2 mph 21.9 mph N/A   Clear
2:53 PM 66.0 °F - 32.0 °F 28% 30.16 in 10.0 mi South 13.8 mph 20.7 mph N/A   Clear
3:53 PM 64.9 °F - 33.1 °F 31% 30.15 in 10.0 mi SSW 11.5 mph 19.6 mph N/A   Clear
4:53 PM 64.0 °F - 32.0 °F 30% 30.13 in 10.0 mi SSW 13.8 mph 20.7 mph N/A   Clear
5:53 PM 63.0 °F - 30.9 °F 30% 30.12 in 10.0 mi South 9.2 mph 21.9 mph N/A   Clear
6:53 PM 61.0 °F - 32.0 °F 34% 30.11 in 10.0 mi SSW 12.7 mph 21.9 mph N/A   Clear
7:53 PM 60.1 °F - 30.9 °F 33% 30.12 in 10.0 mi South 9.2 mph 18.4 mph N/A   Clear
8:53 PM 57.9 °F - 32.0 °F 37% 30.13 in 10.0 mi SW 8.1 mph - N/A   Overcast
9:53 PM 53.1 °F - 39.0 °F 59% 30.15 in 10.0 mi SSW 13.8 mph 23.0 mph 0.00 in Rain Light Rain
10:53 PM 50.0 °F - 42.1 °F 74% 30.15 in 10.0 mi SSE 10.4 mph - 0.05 in Rain Light Rain
11:53 PM 48.0 °F - 43.0 °F 83% 30.16 in 9.0 mi South 5.8 mph - 0.05 in Rain Light Rain